QPF
0.00 0.00 0.00 0.00 0.00 0.00 0.00 0.00 0.00 0.00 0.00 0.00 0.00 0.00 0.00 0.00 0.00 0.00 0.00 0.00 0.00 0.00 0.00 0.00 0.00 0.00 0.00 0.00 0.00 0.00 0.00 0.00 0.00 0.00 0.00 0.00 0.00 0.00 0.00 0.00 0.00 0.00 0.00 0.00 0.00 0.00 0.00 0.00 0.00 0.00 0.00 0.00 0.00 0.00 0.00 0.00 0.00 0.00 0.00 0.00 0.00 0.00 0.00 0.00 0.00 0.00 0.00 0.00 0.00 0.00 0.00 0.00 0.00 0.00
0.00 0.00 0.00 0.00 0.00 0.00 0.00 0.00 0.00 0.00 0.00 0.00 0.00 0.00 0.00 0.00 0.00 0.00 0.00 0.00 0.00 0.00 0.00 0.00 0.00 0.00 0.00 0.00 0.00 0.00 0.00 0.00 0.00 0.00 0.00 0.00 0.00 0.00 0.00 0.00 0.00 0.00 0.00 0.00 0.00 0.00 0.00 0.00 0.00 0.00 0.00 0.00 0.00 0.00 0.00 0.00 0.00 0.00 0.00 0.00 0.00 0.00 0.00 0.00 0.00 0.00 0.00 0.00 0.00 0.00 0.00 0.00 0.00 0.00
0.00 0.00 0.00 0.00 0.00 0.00 0.00 0.00 0.00 0.00 0.00 0.00 0.00 0.00 0.00 0.00 0.00 0.00 0.00 0.00 0.00 0.00 0.00 0.00 0.00 0.00 0.00 0.00 0.00 0.00 0.00 0.00 0.00 0.00 0.00 0.00 0.00 0.00 0.00 0.00 0.00 0.00 0.00 0.00 0.00 0.00 0.00 0.00 0.00 0.00 0.00 0.00 0.00 0.00 0.00 0.00 0.00 0.00 0.00 0.00 0.00 0.00 0.00 0.00 0.00 0.00 0.00 0.00 0.00 0.00 0.00 0.00 0.00 0.00
0.00 0.00 0.00 0.00 0.00 0.00 0.00 0.00 0.00 0.00 0.00 0.00 0.00 0.00 0.00 0.00 0.00 0.00 0.00 0.00 0.00 0.00 0.00 0.00 0.00 0.00 0.00 0.00 0.00 0.00 0.00 0.00 0.00 0.00 0.00 0.00 0.00 0.00 0.00 0.00 0.00 0.00 0.00 0.00 0.00 0.00 0.00 0.00 0.00 0.00 0.00 0.00 0.00 0.00 0.00 0.00 0.00 0.00 0.00 0.00 0.00 0.00 0.00 0.00 0.00 0.00 0.00 0.00 0.00 0.00 0.00 0.00 0.00 0.00
0.00 0.00 0.00 0.00 0.00 0.00 0.00 0.00 0.00 0.00 0.00 0.00 0.00 0.00 0.00 0.00 0.00 0.00 0.00 0.00 0.00 0.00 0.00 0.00 0.00 0.00 0.00 0.00 0.00 0.00 0.00 0.00 0.00 0.00 0.00 0.00 0.00 0.00 0.00 0.00 0.00 0.00 0.00 0.00 0.00 0.00 0.00 0.00 0.00 0.00 0.00 0.00 0.00 0.00 0.00 0.00 0.00 0.00 0.00 0.00 0.00 0.00 0.00 0.00 0.00 0.00 0.00 0.00 0.00 0.00 0.00 0.00 0.00 0.00
0.00 0.00 0.00 0.00 0.00 0.00 0.00 0.00 0.00 0.00 0.00 0.00 0.00 0.00 0.00 0.00 0.00 0.00 0.00 0.00 0.00 0.00 0.00 0.00 0.00 0.00 0.00 0.00 0.00 0.00 0.00 0.00 0.00 0.00 0.00 0.00 0.00 0.00 0.00 0.00 0.00 0.00 0.00 0.00 0.00 0.00 0.00 0.00 0.00 0.00 0.00 0.00 0.00 0.00 0.00 0.00 0.00 0.00 0.00 0.00 0.00 0.00 0.00 0.00 0.00 0.00 0.00 0.00 0.00 0.00 0.00 0.00 0.00 0.00
0.00 0.00 0.00 0.00 0.00 0.00 0.00 0.00 0.00 0.00 0.00 0.00 0.00 0.00 0.00 0.00 0.00 0.00 0.00 0.00 0.00 0.00 0.00 0.00 0.00 0.00 0.00 0.00 0.00 0.00 0.00 0.00 0.00 0.00 0.00 0.00 0.00 0.00 0.00 0.00 0.00 0.00 0.00 0.00 0.00 0.00 0.00 0.00 0.00 0.00 0.00 0.00 0.00 0.00 0.00 0.00 0.00 0.00 0.00 0.00 0.00 0.00 0.00 0.00 0.00 0.00 0.00 0.00 0.00 0.00 0.00 0.00 0.00 0.00
0.00 0.00 0.00 0.00 0.00 0.00 0.00 0.00 0.00 0.00 0.00 0.00 0.00 0.00 0.00 0.00 0.00 0.00 0.00 0.00 0.00 0.00 0.00 0.00 0.00 0.00 0.00 0.00 0.00 0.00 0.00 0.00 0.00 0.00 0.00 0.00 0.00 0.00 0.00 0.00 0.00 0.00 0.00 0.00 0.00 0.00 0.00 0.00 0.00 0.00 0.00 0.00 0.00 0.00 0.00 0.00 0.00 0.00 0.00 0.00 0.00 0.00 0.00 0.00 0.00 0.00 0.00 0.00 0.00 0.00 0.00 0.00 0.00 0.00
0.00 0.00 0.00 0.00 0.00 0.00 0.00 0.00 0.00 0.00 0.00 0.00 0.00 0.00 0.00 0.00 0.00 0.00 0.00 0.00 0.00 0.00 0.00 0.00 0.00 0.00 0.00 0.00 0.00 0.00 0.00 0.00 0.00 0.00 0.00 0.00 0.00 0.00 0.00 0.00 0.00 0.00 0.00 0.00 0.00 0.00 0.00 0.00 0.00 0.00 0.00 0.00 0.00 0.00 0.00 0.00 0.00 0.00 0.00 0.00 0.00 0.00 0.00 0.00 0.00 0.00 0.00 0.00 0.00 0.00 0.00 0.00 0.00 0.00
0.00 0.00 0.00 0.00 0.00 0.00 0.00 0.00 0.00 0.00 0.00 0.00 0.00 0.00 0.00 0.00 0.00 0.00 0.00 0.00 0.00 0.00 0.00 0.00 0.00 0.00 0.00 0.00 0.00 0.00 0.00 0.00 0.00 0.00 0.00 0.00 0.00 0.00 0.00 0.00 0.00 0.00 0.00 0.00 0.00 0.00 0.00 0.00 0.00 0.00 0.00 0.00 0.00 0.00 0.00 0.00 0.00 0.00 0.00 0.00 0.00 0.00 0.00 0.00 0.00 0.00 0.00 0.00 0.00 0.00 0.00 0.00 0.00 0.00
0.00 0.00 0.00 0.00 0.00 0.00 0.00 0.00 0.00 0.00 0.00 0.00 0.00 0.00 0.00 0.00 0.00 0.00 0.00 0.00 0.00 0.00 0.00 0.00 0.00 0.00 0.00 0.00 0.00 0.00 0.00 0.00 0.00 0.00 0.00 0.00 0.00 0.00 0.00 0.00 0.00 0.00 0.00 0.00 0.00 0.00 0.00 0.00 0.00 0.00 0.00 0.00 0.00 0.00 0.00 0.00 0.00 0.00 0.00 0.00 0.00 0.00 0.00 0.00 0.00 0.00 0.00 0.00 0.00 0.00 0.00 0.00 0.00 0.00
0.00 0.00 0.00 0.00 0.00 0.00 0.00 0.00 0.00 0.00 0.00 0.00 0.00 0.00 0.00 0.00 0.00 0.00 0.00 0.00 0.00 0.00 0.00 0.00 0.00 0.00 0.00 0.00 0.00 0.00 0.00 0.00 0.00 0.00 0.00 0.00 0.00 0.00 0.00 0.00 0.00 0.00 0.00 0.00 0.00 0.00 0.00 0.00 0.00 0.00 0.00 0.00 0.00 0.00 0.00 0.00 0.00 0.00 0.00 0.00 0.00 0.00 0.00 0.00 0.00 0.00 0.00 0.00 0.00 0.00 0.00 0.00 0.00 0.00
0.00 0.00 0.00 0.00 0.00 0.00 0.00 0.00 0.00 0.00 0.00 0.00 0.00 0.00 0.00 0.00 0.00 0.00 0.00 0.00 0.00 0.00 0.00 0.00 0.00 0.00 0.00 0.00 0.00 0.00 0.00 0.00 0.00 0.00 0.00 0.00 0.00 0.00 0.00 0.00 0.00 0.00 0.00 0.00 0.00 0.00 0.00 0.00 0.00 0.00 0.00 0.00 0.00 0.00 0.00 0.00 0.00 0.00 0.00 0.00 0.00 0.00 0.00 0.00 0.00 0.00 0.00 0.00 0.00 0.00 0.00 0.00 0.00 0.00
0.00 0.00 0.00 0.00 0.00 0.00 0.00 0.00 0.00 0.00 0.00 0.00 0.00 0.00 0.00 0.00 0.00 0.00 0.00 0.00 0.00 0.00 0.00 0.00 0.00 0.00 0.00 0.00 0.00 0.00 0.00 0.00 0.00 0.00 0.00 0.00 0.00 0.00 0.00 0.00 0.00 0.00 0.00 0.00 0.00 0.00 0.00 0.00 0.00 0.00 0.00 0.00 0.00 0.00 0.00 0.00 0.00 0.00 0.00 0.00 0.00 0.00 0.00 0.00 0.00 0.00 0.00 0.00 0.00 0.00 0.00 0.00 0.00 0.00
0.00 0.00 0.00 0.00 0.00 0.00 0.00 0.00 0.00 0.00 0.00 0.00 0.00 0.00 0.00 0.00 0.00 0.00 0.00 0.00 0.00 0.00 0.00 0.00 0.00 0.00 0.00 0.00 0.00 0.00 0.00 0.00 0.00 0.00 0.00 0.00 0.00 0.00 0.00 0.00 0.00 0.00 0.00 0.00 0.00 0.01 0.00 0.00 0.00 0.00 0.00 0.00 0.00 0.00 0.00 0.00 0.00 0.00 0.00 0.00 0.00 0.00 0.00 0.00 0.00 0.00 0.00 0.00 0.00 0.00 0.00 0.00 0.00 0.00
0.00 0.00 0.00 0.00 0.00 0.00 0.00 0.00 0.00 0.00 0.00 0.00 0.00 0.00 0.00 0.00 0.00 0.00 0.00 0.00 0.00 0.00 0.00 0.00 0.00 0.00 0.00 0.00 0.00 0.00 0.00 0.00 0.00 0.00 0.00 0.00 0.00 0.00 0.00 0.00 0.00 0.00 0.00 0.00 0.00 0.02 0.00 0.00 0.00 0.00 0.00 0.00 0.00 0.00 0.00 0.00 0.00 0.00 0.00 0.00 0.00 0.00 0.00 0.00 0.00 0.00 0.00 0.00 0.00 0.00 0.00 0.00 0.00 0.00
0.00 0.00 0.00 0.00 0.00 0.00 0.00 0.00 0.00 0.00 0.00 0.00 0.00 0.00 0.00 0.00 0.00 0.00 0.00 0.00 0.00 0.00 0.00 0.00 0.00 0.00 0.00 0.00 0.00 0.00 0.00 0.00 0.00 0.00 0.00 0.00 0.00 0.00 0.00 0.00 0.00 0.00 0.00 0.00 0.00 0.02 0.00 0.00 0.00 0.00 0.00 0.00 0.00 0.00 0.00 0.00 0.00 0.00 0.00 0.00 0.00 0.00 0.00 0.00 0.00 0.00 0.00 0.00 0.00 0.00 0.00 0.00 0.00 0.00
0.00 0.00 0.00 0.00 0.00 0.00 0.00 0.00 0.00 0.00 0.00 0.00 0.00 0.00 0.00 0.00 0.00 0.00 0.00 0.00 0.00 0.00 0.00 0.00 0.00 0.00 0.00 0.00 0.00 0.00 0.00 0.00 0.00 0.00 0.00 0.00 0.00 0.00 0.00 0.00 0.00 0.00 0.00 0.00 0.00 0.00 0.00 0.00 0.00 0.00 0.00 0.00 0.00 0.00 0.00 0.00 0.00 0.00 0.00 0.00 0.00 0.00 0.00 0.00 0.00 0.00 0.00 0.00 0.00 0.00 0.00 0.00 0.00 0.00
0.00 0.00 0.00 0.00 0.00 0.00 0.00 0.00 0.00 0.00 0.00 0.00 0.00 0.00 0.00 0.00 0.00 0.00 0.00 0.00 0.00 0.00 0.00 0.00 0.00 0.00 0.00 0.00 0.00 0.00 0.00 0.00 0.00 0.00 0.00 0.00 0.00 0.00 0.00 0.00 0.00 0.00 0.00 0.00 0.00 0.00 0.01 0.00 0.00 0.00 0.00 0.00 0.00 0.00 0.00 0.00 0.00 0.00 0.00 0.00 0.00 0.00 0.00 0.00 0.00 0.00 0.00 0.00 0.00 0.00 0.00 0.00 0.00 0.00
0.00 0.00 0.00 0.00 0.00 0.00 0.00 0.00 0.00 0.00 0.00 0.00 0.00 0.00 0.00 0.00 0.00 0.00 0.00 0.00 0.00 0.00 0.00 0.00 0.00 0.00 0.00 0.00 0.00 0.00 0.00 0.00 0.00 0.00 0.00 0.00 0.00 0.00 0.00 0.00 0.00 0.00 0.00 0.00 0.00 0.00 0.01 0.00 0.00 0.00 0.00 0.00 0.00 0.00 0.00 0.00 0.00 0.00 0.00 0.00 0.00 0.00 0.00 0.00 0.00 0.00 0.00 0.00 0.00 0.00 0.00 0.00 0.00 0.00
0.00 0.00 0.00 0.00 0.00 0.00 0.00 0.00 0.00 0.00 0.00 0.00 0.00 0.00 0.00 0.00 0.00 0.00 0.00 0.00 0.00 0.00 0.00 0.00 0.00 0.00 0.00 0.00 0.00 0.00 0.00 0.00 0.00 0.00 0.00 0.00 0.00 0.00 0.00 0.00 0.00 0.00 0.00 0.00 0.00 0.01 0.01 0.00 0.00 0.00 0.00 0.00 0.00 0.00 0.00 0.00 0.00 0.00 0.00 0.00 0.00 0.00 0.00 0.00 0.00 0.00 0.00 0.00 0.00 0.00 0.00 0.00 0.00 0.00
0.00 0.00 0.00 0.00 0.00 0.00 0.00 0.00 0.00 0.00 0.00 0.00 0.00 0.00 0.00 0.00 0.00 0.00 0.00 0.00 0.00 0.00 0.00 0.00 0.00 0.00 0.00 0.00 0.00 0.00 0.00 0.00 0.00 0.00 0.00 0.00 0.00 0.00 0.00 0.00 0.00 0.00 0.00 0.00 0.00 0.01 0.00 0.00 0.00 0.00 0.00 0.00 0.00 0.00 0.00 0.00 0.00 0.00 0.00 0.00 0.00 0.00 0.00 0.00 0.00 0.00 0.00 0.00 0.00 0.00 0.00 0.00 0.00 0.00
0.00 0.00 0.00 0.00 0.00 0.00 0.00 0.00 0.00 0.00 0.00 0.00 0.00 0.00 0.00 0.00 0.00 0.00 0.00 0.00 0.00 0.00 0.00 0.00 0.00 0.00 0.00 0.00 0.00 0.00 0.00 0.00 0.00 0.00 0.00 0.00 0.00 0.00 0.00 0.00 0.00 0.00 0.00 0.00 0.00 0.00 0.01 0.00 0.00 0.00 0.00 0.00 0.00 0.00 0.00 0.00 0.00 0.00 0.00 0.00 0.00 0.00 0.00 0.00 0.00 0.00 0.00 0.00 0.00 0.00 0.00 0.00 0.00 0.00
0.00 0.00 0.00 0.00 0.00 0.00 0.00 0.00 0.00 0.00 0.00 0.00 0.00 0.00 0.00 0.00 0.00 0.00 0.00 0.00 0.00 0.00 0.00 0.00 0.00 0.00 0.00 0.00 0.00 0.00 0.00 0.00 0.00 0.00 0.00 0.00 0.00 0.00 0.00 0.00 0.00 0.00 0.00 0.00 0.00 0.00 0.02 0.00 0.00 0.00 0.00 0.00 0.01 0.00 0.00 0.00 0.00 0.00 0.00 0.00 0.00 0.00 0.00 0.00 0.00 0.00 0.00 0.00 0.00 0.00 0.00 0.00 0.00 0.00
0.00 0.00 0.00 0.00 0.00 0.00 0.00 0.00 0.00 0.00 0.00 0.00 0.00 0.00 0.00 0.00 0.00 0.00 0.00 0.00 0.00 0.00 0.00 0.00 0.00 0.00 0.00 0.00 0.00 0.00 0.00 0.00 0.00 0.00 0.00 0.00 0.00 0.00 0.00 0.00 0.00 0.00 0.00 0.00 0.00 0.01 0.01 0.00 0.00 0.00 0.00 0.00 0.00 0.00 0.00 0.00 0.00 0.00 0.00 0.00 0.00 0.00 0.00 0.00 0.00 0.00 0.00 0.00 0.00 0.00 0.00 0.00 0.00 0.00
0.00 0.00 0.00 0.00 0.00 0.00 0.00 0.00 0.00 0.00 0.00 0.00 0.00 0.00 0.00 0.00 0.00 0.00 0.00 0.00 0.00 0.00 0.00 0.00 0.00 0.00 0.00 0.00 0.00 0.00 0.00 0.00 0.00 0.00 0.00 0.00 0.00 0.00 0.00 0.00 0.00 0.00 0.00 0.01 0.00 0.01 0.01 0.01 0.01 0.01 0.01 0.00 0.00 0.00 0.00 0.00 0.00 0.00 0.00 0.00 0.00 0.00 0.00 0.00 0.00 0.00 0.00 0.00 0.00 0.00 0.00 0.00 0.00 0.00
0.00 0.00 0.00 0.00 0.00 0.00 0.00 0.00 0.00 0.00 0.00 0.00 0.00 0.00 0.00 0.00 0.00 0.00 0.00 0.00 0.00 0.00 0.00 0.00 0.00 0.00 0.00 0.00 0.00 0.00 0.00 0.00 0.00 0.00 0.00 0.00 0.00 0.00 0.00 0.00 0.00 0.00 0.01 0.01 0.00 0.01 0.01 0.03 0.01 0.01 0.01 0.01 0.00 0.00 0.00 0.00 0.00 0.00 0.00 0.00 0.00 0.00 0.00 0.00 0.00 0.00 0.00 0.00 0.00 0.00 0.00 0.00 0.00 0.00
0.00 0.00 0.00 0.00 0.00 0.00 0.00 0.00 0.00 0.00 0.00 0.00 0.00 0.00 0.00 0.00 0.00 0.00 0.00 0.00 0.00 0.00 0.00 0.00 0.00 0.00 0.00 0.00 0.00 0.00 0.00 0.00 0.00 0.00 0.00 0.00 0.00 0.00 0.00 0.00 0.00 0.00 0.00 0.01 0.00 0.00 0.00 0.00 0.00 0.00 0.01 0.00 0.01 0.00 0.00 0.00 0.00 0.00 0.00 0.00 0.00 0.00 0.00 0.00 0.00 0.00 0.00 0.00 0.00 0.00 0.00 0.00 0.00 0.00
0.00 0.00 0.00 0.00 0.00 0.00 0.00 0.00 0.00 0.00 0.00 0.00 0.00 0.00 0.00 0.00 0.00 0.00 0.00 0.00 0.00 0.00 0.00 0.00 0.00 0.00 0.00 0.00 0.00 0.00 0.00 0.00 0.00 0.00 0.00 0.00 0.00 0.00 0.00 0.00 0.00 0.00 0.00 0.00 0.00 0.00 0.00 0.00 0.01 0.01 0.01 0.00 0.00 0.00 0.00 0.00 0.00 0.00 0.00 0.00 0.00 0.00 0.00 0.00 0.00 0.00 0.00 0.00 0.00 0.00 0.00 0.00 0.00 0.00
0.00 0.00 0.00 0.00 0.00 0.00 0.00 0.00 0.00 0.00 0.00 0.00 0.00 0.00 0.00 0.00 0.00 0.00 0.00 0.00 0.00 0.00 0.00 0.00 0.00 0.00 0.00 0.00 0.00 0.00 0.00 0.00 0.00 0.00 0.00 0.00 0.00 0.00 0.00 0.00 0.00 0.00 0.00 0.00 0.00 0.00 0.00 0.00 0.00 0.00 0.00 0.00 0.00 0.00 0.00 0.00 0.00 0.00 0.00 0.00 0.00 0.00 0.00 0.00 0.00 0.00 0.00 0.00 0.00 0.00 0.00 0.00 0.00 0.00
0.00 0.00 0.00 0.00 0.00 0.00 0.00 0.00 0.00 0.00 0.00 0.00 0.00 0.00 0.00 0.00 0.00 0.00 0.00 0.00 0.00 0.00 0.00 0.00 0.00 0.00 0.00 0.00 0.00 0.00 0.00 0.00 0.00 0.00 0.00 0.00 0.00 0.00 0.00 0.00 0.01 0.00 0.00 0.00 0.00 0.00 0.00 0.00 0.00 0.00 0.00 0.00 0.00 0.00 0.00 0.00 0.00 0.00 0.00 0.00 0.00 0.00 0.00 0.00 0.00 0.00 0.00 0.00 0.00 0.00 0.00 0.00 0.00 0.00
0.00 0.00 0.00 0.00 0.00 0.00 0.00 0.00 0.00 0.00 0.00 0.00 0.00 0.00 0.00 0.00 0.00 0.00 0.00 0.00 0.00 0.00 0.00 0.00 0.00 0.00 0.00 0.00 0.00 0.00 0.00 0.00 0.00 0.00 0.00 0.00 0.00 0.00 0.00 0.01 0.01 0.00 0.00 0.00 0.00 0.00 0.00 0.00 0.00 0.00 0.00 0.00 0.00 0.00 0.00 0.00 0.00 0.00 0.00 0.00 0.00 0.00 0.00 0.00 0.00 0.00 0.00 0.00 0.00 0.00 0.00 0.00 0.00 0.00
0.00 0.00 0.00 0.00 0.00 0.00 0.00 0.00 0.00 0.00 0.00 0.00 0.00 0.00 0.00 0.00 0.00 0.00 0.00 0.00 0.00 0.00 0.00 0.00 0.00 0.00 0.00 0.00 0.00 0.00 0.00 0.00 0.00 0.00 0.00 0.00 0.00 0.00 0.00 0.00 0.00 0.00 0.00 0.00 0.00 0.00 0.00 0.00 0.00 0.00 0.00 0.00 0.00 0.00 0.00 0.00 0.00 0.00 0.00 0.00 0.00 0.00 0.00 0.00 0.00 0.00 0.00 0.00 0.00 0.00 0.00 0.00 0.00 0.00
0.01 0.00 0.00 0.00 0.00 0.00 0.00 0.00 0.00 0.00 0.00 0.00 0.00 0.00 0.00 0.00 0.00 0.00 0.00 0.00 0.00 0.00 0.00 0.00 0.00 0.00 0.00 0.00 0.00 0.00 0.00 0.00 0.00 0.00 0.00 0.00 0.00 0.00 0.00 0.00 0.00 0.00 0.00 0.00 0.00 0.00 0.00 0.00 0.00 0.00 0.00 0.00 0.00 0.00 0.00 0.00 0.00 0.00 0.00 0.00 0.00 0.00 0.00 0.00 0.00 0.00 0.00 0.00 0.00 0.00 0.00 0.00 0.00 0.00
0.00 0.00 0.00 0.00 0.00 0.00 0.00 0.00 0.00 0.00 0.00 0.00 0.00 0.00 0.00 0.00 0.00 0.00 0.00 0.00 0.00 0.00 0.00 0.00 0.00 0.00 0.00 0.00 0.00 0.00 0.00 0.00 0.00 0.00 0.00 0.00 0.00 0.00 0.00 0.00 0.00 0.00 0.00 0.00 0.04 0.07 0.00 0.00 0.00 0.00 0.00 0.00 0.00 0.00 0.00 0.00 0.00 0.00 0.00 0.00 0.00 0.00 0.00 0.00 0.00 0.00 0.00 0.00 0.00 0.00 0.00 0.00 0.00 0.00
0.00 0.00 0.00 0.00 0.00 0.00 0.00 0.00 0.00 0.00 0.00 0.00 0.00 0.00 0.00 0.00 0.00 0.00 0.00 0.00 0.00 0.00 0.00 0.00 0.00 0.00 0.00 0.00 0.00 0.00 0.00 0.00 0.00 0.00 0.00 0.00 0.00 0.00 0.00 0.00 0.00 0.01 0.01 0.01 0.01 0.01 0.01 0.01 0.03 0.02 0.00 0.00 0.00 0.00 0.00 0.00 0.00 0.00 0.00 0.00 0.00 0.00 0.00 0.00 0.00 0.00 0.00 0.00 0.00 0.00 0.00 0.00 0.00 0.00
0.00 0.00 0.00 0.00 0.00 0.00 0.00 0.00 0.00 0.00 0.00 0.00 0.00 0.00 0.00 0.00 0.00 0.00 0.00 0.00 0.00 0.00 0.00 0.00 0.00 0.00 0.00 0.00 0.00 0.00 0.00 0.00 0.00 0.00 0.00 0.00 0.00 0.00 0.00 0.01 0.01 0.02 0.03 0.02 0.02 0.01 0.01 0.02 0.01 0.00 0.00 0.00 0.00 0.00 0.00 0.00 0.00 0.00 0.00 0.00 0.00 0.00 0.00 0.00 0.00 0.00 0.00 0.00 0.00 0.00 0.00 0.00 0.00 0.00
0.00 0.00 0.00 0.00 0.00 0.00 0.00 0.00 0.00 0.00 0.00 0.00 0.00 0.00 0.00 0.00 0.00 0.00 0.00 0.00 0.00 0.00 0.00 0.00 0.00 0.00 0.00 0.00 0.00 0.00 0.00 0.00 0.00 0.00 0.00 0.00 0.00 0.00 0.00 0.00 0.01 0.01 0.02 0.01 0.02 0.02 0.04 0.02 0.01 0.00 0.00 0.00 0.00 0.00 0.01 0.00 0.00 0.00 0.00 0.00 0.00 0.00 0.00 0.00 0.00 0.00 0.00 0.00 0.00 0.00 0.00 0.00 0.00 0.00
0.00 0.00 0.00 0.00 0.00 0.00 0.00 0.00 0.00 0.00 0.00 0.00 0.00 0.00 0.00 0.00 0.00 0.00 0.00 0.00 0.00 0.00 0.00 0.00 0.00 0.00 0.00 0.00 0.00 0.00 0.00 0.00 0.00 0.00 0.00 0.00 0.00 0.00 0.00 0.00 0.01 0.03 0.03 0.03 0.02 0.02 0.01 0.01 0.00 0.00 0.00 0.00 0.00 0.00 0.00 0.00 0.00 0.00 0.00 0.00 0.00 0.00 0.00 0.00 0.00 0.00 0.00 0.00 0.00 0.00 0.00 0.00 0.00 0.00
0.00 0.00 0.00 0.00 0.00 0.00 0.00 0.00 0.00 0.00 0.00 0.00 0.00 0.00 0.00 0.00 0.00 0.00 0.00 0.00 0.00 0.00 0.00 0.00 0.00 0.00 0.00 0.00 0.00 0.00 0.00 0.00 0.00 0.00 0.00 0.00 0.00 0.00 0.00 0.00 0.02 0.04 0.03 0.03 0.03 0.02 0.02 0.01 0.00 0.17 0.13 0.02 0.00 0.00 0.01 0.02 0.04 0.02 0.01 0.00 0.00 0.00 0.00 0.00 0.00 0.00 0.00 0.00 0.00 0.00 0.00 0.00 0.00 0.00
0.00 0.00 0.00 0.00 0.00 0.00 0.00 0.00 0.00 0.00 0.00 0.00 0.00 0.00 0.00 0.00 0.00 0.00 0.00 0.00 0.00 0.00 0.00 0.00 0.00 0.00 0.00 0.00 0.00 0.01 0.00 0.00 0.00 0.00 0.00 0.00 0.00 0.00 0.00 0.02 0.09 0.03 0.02 0.01 0.01 0.01 0.01 0.21 0.73 0.04 0.00 0.01 0.00 0.01 0.02 0.02 0.02 0.06 0.04 0.00 0.00 0.00 0.00 0.00 0.00 0.00 0.00 0.00 0.00 0.00 0.00 0.00 0.00 0.00
0.00 0.00 0.00 0.00 0.00 0.00 0.00 0.00 0.00 0.01 0.00 0.00 0.00 0.00 0.00 0.00 0.00 0.00 0.00 0.00 0.00 0.00 0.00 0.00 0.00 0.00 0.00 0.00 0.00 0.00 0.00 0.00 0.01 0.00 0.00 0.00 0.00 0.00 0.00 0.01 0.01 0.00 0.00 0.00 0.00 0.45 1.04 0.34 0.01 0.00 0.00 0.00 0.00 0.01 0.04 0.01 0.13 0.00 0.00 0.00 0.00 0.00 0.00 0.00 0.00 0.00 0.00 0.00 0.00 0.00 0.00 0.00 0.00 0.00
0.00 0.00 0.00 0.00 0.02 0.00 0.00 0.00 0.00 0.00 0.00 0.00 0.00 0.00 0.00 0.00 0.00 0.00 0.00 0.00 0.00 0.00 0.00 0.00 0.00 0.00 0.00 0.00 0.00 0.03 0.05 0.04 0.01 0.00 0.00 0.00 0.00 0.00 0.00 0.00 0.00 0.00 0.00 0.01 0.12 0.55 0.14 0.01 0.03 0.00 0.00 0.00 0.01 0.01 0.01 0.04 0.00 0.12 0.00 0.00 0.00 0.00 0.00 0.00 0.00 0.00 0.00 0.00 0.00 0.00 0.00 0.00 0.00 0.00
0.00 0.00 0.00 0.00 0.00 0.00 0.00 0.00 0.01 0.01 0.00 0.00 0.00 0.00 0.00 0.00 0.00 0.00 0.00 0.00 0.00 0.00 0.00 0.00 0.00 0.00 0.00 0.00 0.02 0.03 0.04 0.02 0.00 0.00 0.00 0.00 0.00 0.01 0.02 0.67 0.40 0.40 0.27 0.00 0.14 0.28 0.09 0.01 0.01 0.02 0.02 0.02 0.02 0.01 0.00 0.01 0.10 0.01 0.00 0.00 0.00 0.00 0.00 0.00 0.00 0.00 0.00 0.00 0.00 0.00 0.00 0.00 0.00 0.00
0.00 0.00 0.00 0.00 0.00 0.00 0.00 0.00 0.01 0.01 0.01 0.00 0.01 0.01 0.02 0.04 0.01 0.00 0.00 0.00 0.00 0.00 0.00 0.00 0.00 0.00 0.00 0.01 0.00 0.00 0.01 0.02 0.03 0.02 0.03 0.00 0.00 0.44 0.65 1.11 0.87 0.24 0.06 0.05 0.02 0.05 0.05 0.28 0.31 0.11 0.04 0.20 0.15 0.04 0.07 0.11 0.05 0.08 0.00 0.00 0.00 0.00 0.04 0.04 0.06 0.02 0.02 0.00 0.00 0.00 0.00 0.00 0.00 0.00
MSLP
1022.63 1022.79 1022.91 1023.11 1023.03 1022.91 1022.75 1022.79 1022.71 1022.91 1023.03 1023.11 1023.19 1023.23 1023.83 1024.23 1025.19 1025.67 1025.51 1024.95 1024.47 1023.19 1022.43 1023.15 1022.31 1021.59 1021.55 1021.51 1021.07 1021.03 1020.91 1020.79 1020.71 1020.39 1020.27 1020.19 1020.03 1020.07 1020.15 1020.11 1020.03 1019.95 1019.91 1019.79 1019.79 1019.79 1019.67 1019.47 1019.35 1019.27 1019.15 1019.07 1018.99 1018.95 1018.87 1018.83 1018.75 1018.67 1018.55 1018.47 1018.39 1018.27 1018.19 1018.11 1017.99 1017.83 1017.71 1017.63 1017.55 1017.47 1017.43 1017.39 1017.31 1017.23
1022.55 1022.63 1022.71 1022.75 1022.95 1022.71 1022.75 1022.71 1022.55 1022.75 1022.91 1022.99 1023.03 1023.11 1023.19 1023.43 1024.47 1024.91 1025.63 1025.27 1023.83 1023.71 1022.51 1022.19 1022.55 1021.83 1021.75 1021.27 1021.15 1020.91 1020.87 1020.75 1020.63 1020.39 1020.27 1020.15 1020.11 1020.15 1020.07 1019.99 1019.99 1019.95 1019.91 1019.91 1019.91 1019.79 1019.63 1019.51 1019.47 1019.31 1019.23 1019.15 1019.07 1018.99 1018.95 1018.87 1018.83 1018.75 1018.67 1018.59 1018.51 1018.43 1018.31 1018.19 1018.03 1017.91 1017.79 1017.67 1017.59 1017.51 1017.43 1017.35 1017.23 1017.19
1022.43 1022.71 1022.83 1022.75 1022.87 1022.67 1022.75 1022.63 1022.47 1022.51 1022.71 1022.75 1022.79 1022.91 1022.99 1023.27 1023.47 1024.07 1024.55 1025.43 1023.83 1023.07 1023.63 1022.47 1021.67 1021.87 1021.67 1021.31 1021.19 1020.91 1020.67 1020.63 1020.55 1020.39 1020.27 1020.15 1020.15 1020.07 1019.83 1019.91 1019.95 1019.95 1019.95 1019.95 1019.87 1019.75 1019.71 1019.63 1019.51 1019.35 1019.31 1019.23 1019.19 1019.11 1019.03 1018.99 1018.95 1018.91 1018.87 1018.83 1018.71 1018.63 1018.51 1018.35 1018.23 1018.11 1017.99 1017.87 1017.75 1017.63 1017.51 1017.35 1017.23 1017.19
1022.31 1022.55 1022.79 1022.75 1022.75 1022.63 1022.67 1022.71 1022.63 1022.63 1022.55 1022.55 1022.67 1022.75 1022.95 1023.07 1023.07 1023.35 1024.07 1024.75 1024.63 1022.91 1022.83 1022.51 1021.99 1021.47 1021.59 1021.39 1021.51 1021.23 1020.79 1020.43 1020.51 1020.39 1020.23 1020.07 1019.99 1019.75 1019.55 1019.71 1019.91 1019.95 1019.99 1019.95 1019.83 1019.83 1019.79 1019.67 1019.55 1019.47 1019.43 1019.39 1019.35 1019.27 1019.23 1019.23 1019.23 1019.19 1019.15 1019.11 1019.03 1018.91 1018.79 1018.63 1018.51 1018.35 1018.19 1018.03 1017.91 1017.75 1017.59 1017.43 1017.31 1017.19
1022.19 1022.43 1022.59 1022.55 1022.47 1022.39 1022.71 1022.63 1022.51 1022.47 1022.51 1022.51 1022.59 1022.63 1022.79 1022.99 1022.95 1023.27 1023.83 1024.43 1024.27 1023.07 1022.15 1022.39 1022.23 1021.59 1021.51 1021.59 1021.27 1021.39 1021.03 1020.75 1020.51 1020.31 1020.11 1019.95 1019.91 1019.79 1019.67 1019.47 1019.79 1019.91 1019.99 1019.99 1019.91 1019.91 1019.83 1019.79 1019.71 1019.67 1019.67 1019.63 1019.55 1019.55 1019.55 1019.55 1019.51 1019.47 1019.43 1019.39 1019.35 1019.19 1019.07 1018.91 1018.75 1018.63 1018.43 1018.27 1018.07 1017.87 1017.71 1017.55 1017.39 1017.23
1022.03 1022.19 1022.47 1022.43 1022.35 1022.27 1022.51 1022.43 1022.47 1022.31 1022.31 1022.35 1022.47 1022.63 1022.75 1022.83 1022.87 1022.75 1023.47 1023.79 1024.07 1024.15 1022.71 1022.51 1021.79 1021.83 1021.39 1022.03 1021.07 1021.51 1021.43 1021.15 1020.79 1020.71 1020.39 1019.91 1019.79 1019.87 1019.63 1019.43 1019.51 1019.91 1020.07 1020.03 1020.03 1020.03 1019.99 1019.99 1019.95 1019.95 1019.95 1019.91 1019.87 1019.87 1019.87 1019.87 1019.83 1019.79 1019.75 1019.67 1019.59 1019.47 1019.35 1019.19 1019.03 1018.91 1018.75 1018.51 1018.27 1018.07 1017.87 1017.71 1017.55 1017.35
1021.79 1022.07 1022.23 1022.19 1022.07 1021.99 1022.35 1022.39 1022.27 1022.07 1022.27 1022.15 1022.43 1022.51 1022.39 1022.71 1022.55 1022.59 1022.83 1023.43 1023.91 1023.79 1023.31 1022.39 1022.43 1022.07 1021.79 1021.95 1021.71 1021.27 1021.11 1021.03 1020.87 1020.99 1020.63 1020.27 1019.91 1019.71 1019.59 1019.55 1019.27 1019.83 1020.11 1020.15 1020.11 1020.15 1020.19 1020.23 1020.27 1020.27 1020.27 1020.23 1020.27 1020.23 1020.23 1020.19 1020.15 1020.07 1019.99 1019.91 1019.83 1019.75 1019.63 1019.47 1019.31 1019.15 1018.95 1018.75 1018.59 1018.39 1018.15 1017.95 1017.75 1017.55
1021.63 1021.79 1021.99 1021.87 1021.75 1021.79 1022.19 1022.23 1022.15 1022.03 1022.07 1022.23 1022.31 1022.39 1022.31 1022.47 1022.51 1022.39 1022.55 1022.75 1023.23 1023.27 1023.63 1022.71 1022.55 1022.03 1022.19 1021.79 1021.31 1021.11 1021.07 1021.11 1021.07 1020.91 1020.59 1020.15 1020.15 1019.91 1019.51 1019.51 1019.47 1019.79 1020.15 1020.15 1020.23 1020.27 1020.39 1020.51 1020.55 1020.59 1020.59 1020.59 1020.59 1020.59 1020.55 1020.51 1020.43 1020.31 1020.23 1020.15 1020.03 1019.95 1019.83 1019.71 1019.51 1019.31 1019.15 1018.99 1018.83 1018.63 1018.39 1018.15 1017.95 1017.71
1021.31 1021.43 1021.59 1021.51 1021.51 1021.67 1022.07 1021.99 1021.99 1021.83 1022.07 1022.03 1022.07 1022.23 1022.15 1022.27 1022.19 1022.19 1022.31 1022.47 1022.63 1023.11 1023.35 1022.91 1022.15 1021.91 1021.87 1021.55 1021.39 1021.19 1021.59 1021.31 1021.07 1020.79 1020.83 1020.55 1020.35 1020.15 1019.63 1019.35 1019.31 1019.67 1020.03 1020.07 1020.23 1020.43 1020.55 1020.67 1020.75 1020.79 1020.83 1020.83 1020.83 1020.79 1020.79 1020.71 1020.59 1020.47 1020.39 1020.35 1020.19 1020.07 1020.03 1019.91 1019.79 1019.59 1019.39 1019.23 1019.03 1018.79 1018.55 1018.31 1018.07 1017.79
1020.83 1021.03 1021.11 1021.11 1021.19 1021.43 1021.75 1021.75 1021.63 1021.63 1021.83 1021.83 1021.95 1022.07 1022.03 1021.99 1022.03 1022.23 1022.23 1022.27 1022.51 1022.75 1022.83 1022.79 1022.67 1021.95 1022.07 1021.83 1021.63 1021.27 1021.31 1021.67 1021.67 1021.27 1020.79 1020.43 1020.27 1020.31 1020.23 1019.79 1019.43 1019.19 1019.31 1019.59 1019.95 1020.31 1020.51 1020.83 1020.91 1020.91 1020.91 1020.95 1020.95 1020.99 1020.91 1020.83 1020.67 1020.55 1020.55 1020.47 1020.39 1020.31 1020.23 1020.15 1020.03 1019.83 1019.63 1019.43 1019.19 1018.95 1018.75 1018.51 1018.19 1017.91
1020.39 1020.47 1020.59 1020.71 1020.79 1020.99 1021.11 1021.27 1021.35 1021.39 1021.51 1021.59 1021.71 1021.75 1021.83 1021.75 1021.99 1022.15 1022.15 1022.23 1022.43 1022.55 1022.67 1022.43 1022.23 1022.23 1021.63 1021.71 1022.07 1021.23 1021.03 1021.23 1021.35 1021.67 1021.55 1021.35 1020.51 1020.31 1020.39 1020.55 1019.79 1019.27 1019.51 1020.03 1019.95 1020.03 1020.35 1020.59 1020.71 1020.95 1020.95 1020.95 1021.03 1020.99 1020.95 1020.83 1020.75 1020.71 1020.71 1020.67 1020.55 1020.47 1020.39 1020.31 1020.19 1020.03 1019.83 1019.59 1019.35 1019.15 1018.95 1018.75 1018.39 1018.11
1020.07 1020.07 1020.11 1020.07 1020.15 1020.31 1020.43 1020.63 1020.75 1020.87 1021.19 1021.19 1021.47 1021.27 1021.39 1021.55 1021.83 1021.99 1021.95 1022.11 1022.23 1022.39 1022.39 1022.43 1022.35 1021.95 1022.03 1021.71 1021.23 1020.95 1021.11 1021.43 1021.31 1021.07 1021.43 1021.91 1021.43 1020.99 1020.43 1020.19 1020.39 1019.95 1019.79 1019.71 1020.15 1020.23 1020.43 1020.63 1020.71 1020.75 1020.79 1020.83 1020.87 1020.87 1020.75 1020.79 1020.83 1020.91 1020.91 1020.83 1020.75 1020.63 1020.51 1020.43 1020.35 1020.19 1019.99 1019.75 1019.55 1019.39 1019.19 1018.95 1018.63 1018.31
1019.83 1019.83 1019.71 1019.67 1019.59 1019.67 1019.91 1020.07 1020.23 1020.31 1020.51 1020.87 1021.23 1021.11 1021.11 1021.39 1021.63 1021.83 1021.83 1021.95 1022.07 1022.19 1022.23 1022.27 1021.91 1022.03 1022.03 1021.75 1021.75 1021.67 1021.67 1021.71 1021.71 1020.99 1020.91 1021.31 1020.87 1020.75 1020.71 1020.15 1019.67 1019.83 1019.91 1019.75 1019.59 1019.79 1019.75 1019.99 1020.15 1020.15 1020.35 1020.51 1020.55 1020.55 1020.51 1020.55 1020.79 1021.03 1021.03 1020.99 1020.91 1020.79 1020.67 1020.55 1020.47 1020.35 1020.19 1019.95 1019.71 1019.55 1019.35 1019.15 1018.87 1018.55
1019.55 1019.47 1019.39 1019.23 1019.35 1019.55 1019.71 1019.91 1020.07 1020.23 1020.39 1020.47 1020.47 1020.55 1020.71 1021.03 1021.35 1021.59 1021.75 1021.83 1021.83 1021.95 1022.23 1022.07 1021.91 1022.03 1021.91 1021.51 1021.27 1021.39 1021.07 1020.71 1020.59 1020.83 1020.95 1021.31 1020.83 1020.75 1020.83 1020.39 1019.91 1019.47 1019.67 1019.91 1020.27 1019.95 1019.59 1019.91 1020.23 1020.19 1020.43 1020.35 1020.39 1020.31 1020.43 1020.87 1020.99 1021.11 1021.11 1021.07 1020.99 1020.91 1020.79 1020.67 1020.55 1020.47 1020.35 1020.11 1019.83 1019.67 1019.51 1019.35 1019.15 1018.83
1019.31 1019.15 1019.07 1019.03 1019.07 1019.35 1019.55 1019.59 1019.75 1019.95 1020.15 1020.19 1020.27 1020.31 1020.31 1020.35 1020.71 1021.15 1021.43 1021.43 1021.35 1021.67 1021.71 1021.47 1021.55 1021.55 1021.59 1021.23 1020.71 1020.79 1020.59 1020.43 1020.59 1020.75 1020.75 1020.95 1020.95 1021.27 1021.55 1021.83 1020.35 1019.39 1019.59 1020.15 1020.31 1020.15 1019.63 1019.83 1020.35 1020.31 1020.27 1020.27 1020.35 1020.31 1020.87 1021.15 1021.15 1021.15 1021.15 1021.11 1021.07 1020.99 1020.87 1020.75 1020.67 1020.55 1020.47 1020.23 1019.95 1019.75 1019.67 1019.55 1019.39 1019.15
1018.83 1018.87 1018.83 1018.75 1018.67 1018.75 1018.83 1018.87 1019.15 1019.51 1019.67 1019.83 1019.91 1019.99 1020.15 1020.27 1020.27 1020.23 1020.55 1020.95 1021.15 1021.15 1021.35 1021.39 1021.19 1021.11 1021.11 1020.87 1020.55 1020.43 1020.31 1020.51 1020.43 1020.47 1020.55 1020.79 1021.03 1021.15 1021.23 1021.07 1021.23 1019.75 1019.27 1020.07 1020.39 1020.19 1019.75 1019.67 1020.11 1020.39 1020.35 1020.27 1020.31 1020.67 1021.03 1021.15 1021.15 1021.15 1021.19 1021.15 1021.11 1020.99 1020.91 1020.83 1020.75 1020.67 1020.55 1020.35 1020.11 1019.91 1019.79 1019.67 1019.55 1019.35
1018.35 1018.47 1018.59 1018.59 1018.47 1018.27 1018.51 1018.79 1018.75 1018.83 1019.07 1019.31 1019.51 1019.63 1019.83 1019.99 1020.03 1020.11 1020.11 1020.07 1020.15 1020.11 1020.63 1020.83 1020.75 1020.59 1020.47 1020.63 1020.31 1019.95 1020.11 1019.95 1020.67 1020.51 1020.67 1020.59 1020.63 1020.63 1020.83 1020.59 1020.19 1019.55 1019.15 1019.83 1020.19 1020.19 1019.63 1019.75 1020.11 1020.19 1020.23 1020.03 1020.23 1020.63 1020.91 1021.11 1021.15 1021.15 1021.19 1021.15 1021.07 1020.99 1020.91 1020.83 1020.79 1020.71 1020.59 1020.47 1020.23 1020.03 1019.87 1019.75 1019.63 1019.47
1017.79 1017.95 1018.19 1018.35 1018.43 1018.15 1018.23 1018.35 1018.51 1018.63 1018.71 1018.79 1019.07 1019.35 1019.51 1019.47 1019.43 1019.71 1019.83 1019.83 1019.87 1019.87 1019.91 1019.99 1020.27 1019.67 1019.59 1020.03 1019.67 1019.35 1019.39 1020.07 1020.47 1020.47 1020.59 1020.23 1020.39 1020.47 1020.47 1019.83 1019.63 1019.11 1018.79 1019.75 1019.91 1020.31 1019.47 1019.39 1019.67 1020.03 1019.95 1019.87 1020.19 1020.31 1020.75 1020.99 1021.07 1021.11 1021.11 1021.11 1021.03 1020.95 1020.87 1020.83 1020.75 1020.67 1020.59 1020.47 1020.27 1020.07 1019.91 1019.79 1019.67 1019.55
1017.19 1017.31 1017.47 1017.67 1017.83 1017.87 1017.95 1017.87 1018.07 1018.31 1018.47 1018.59 1018.71 1018.79 1018.83 1018.79 1018.71 1018.67 1018.79 1018.95 1019.03 1019.19 1019.15 1019.19 1019.15 1018.99 1018.87 1018.91 1018.87 1018.87 1018.91 1019.19 1019.35 1019.47 1019.79 1019.79 1019.83 1019.75 1019.39 1019.47 1019.23 1019.11 1018.55 1018.87 1019.55 1020.79 1019.31 1019.07 1019.67 1019.75 1019.75 1019.79 1019.91 1019.99 1020.63 1020.79 1020.95 1020.99 1021.03 1020.99 1020.95 1020.87 1020.83 1020.75 1020.67 1020.63 1020.51 1020.39 1020.19 1020.07 1019.91 1019.83 1019.67 1019.51
1016.67 1016.75 1016.91 1017.15 1017.31 1017.39 1017.47 1017.47 1017.75 1017.95 1018.03 1018.31 1018.55 1018.71 1018.59 1018.51 1018.27 1018.11 1017.75 1017.75 1017.83 1017.87 1017.99 1018.11 1018.15 1018.07 1017.99 1018.11 1018.31 1018.35 1018.51 1018.63 1018.75 1018.95 1019.03 1019.15 1019.55 1019.95 1020.23 1020.35 1019.27 1019.23 1018.19 1018.39 1019.23 1019.87 1019.47 1018.71 1019.27 1019.43 1019.39 1019.51 1019.83 1019.83 1019.91 1020.55 1020.71 1020.87 1020.91 1020.87 1020.83 1020.79 1020.75 1020.71 1020.63 1020.55 1020.43 1020.27 1020.07 1019.95 1019.83 1019.71 1019.55 1019.35
1016.31 1016.31 1016.35 1016.55 1016.71 1016.83 1016.95 1016.99 1017.39 1017.71 1017.99 1018.19 1018.31 1018.39 1018.43 1018.23 1018.07 1017.87 1017.39 1017.43 1017.59 1017.71 1017.79 1017.79 1017.83 1017.91 1017.99 1018.11 1018.23 1018.43 1018.67 1018.75 1018.71 1019.03 1019.55 1019.79 1019.39 1019.99 1020.47 1020.07 1019.67 1019.19 1018.23 1018.11 1018.47 1019.03 1019.43 1018.71 1019.07 1019.43 1019.39 1019.51 1019.59 1019.71 1019.67 1019.91 1020.43 1020.63 1020.75 1020.75 1020.75 1020.71 1020.71 1020.67 1020.59 1020.51 1020.39 1020.23 1020.03 1019.91 1019.79 1019.63 1019.35 1019.07
1015.87 1015.79 1015.91 1016.03 1016.19 1016.35 1016.35 1016.47 1016.99 1017.35 1017.75 1018.03 1018.03 1018.11 1018.23 1018.23 1018.15 1017.75 1017.15 1016.95 1017.15 1017.35 1017.51 1017.63 1017.71 1017.83 1017.95 1018.03 1018.11 1018.27 1018.47 1018.67 1018.79 1019.19 1019.83 1018.87 1018.79 1019.59 1019.71 1020.07 1019.39 1018.63 1018.23 1018.07 1017.79 1019.07 1019.27 1018.55 1018.75 1019.23 1019.31 1019.55 1019.47 1019.35 1019.47 1019.63 1020.03 1020.35 1020.47 1020.55 1020.55 1020.59 1020.59 1020.59 1020.55 1020.47 1020.39 1020.23 1020.07 1019.91 1019.75 1019.51 1019.15 1018.59
1015.47 1015.39 1015.39 1015.63 1015.75 1015.83 1015.79 1016.11 1016.59 1016.99 1017.31 1017.47 1017.51 1017.63 1017.83 1017.95 1017.83 1017.27 1016.91 1017.03 1016.99 1017.23 1017.55 1017.59 1017.63 1017.75 1017.71 1017.75 1017.75 1017.63 1017.79 1018.15 1018.35 1018.31 1018.31 1018.11 1018.67 1019.23 1019.11 1019.07 1019.11 1019.39 1018.59 1017.39 1017.35 1019.15 1018.71 1018.67 1018.51 1018.87 1019.71 1019.91 1019.19 1019.11 1019.31 1019.55 1019.51 1019.55 1019.63 1019.91 1020.07 1020.35 1020.39 1020.47 1020.47 1020.47 1020.43 1020.31 1020.15 1019.95 1019.79 1019.55 1019.11 1018.59
1015.15 1014.99 1014.95 1014.99 1015.31 1015.51 1015.67 1015.87 1016.19 1016.55 1016.79 1016.83 1016.79 1016.91 1017.23 1017.35 1017.39 1016.43 1016.51 1016.47 1016.59 1016.75 1016.83 1016.83 1016.79 1016.87 1016.67 1016.75 1016.87 1016.95 1017.07 1017.43 1017.59 1017.59 1017.55 1017.59 1017.83 1018.35 1018.51 1018.47 1018.55 1018.95 1018.35 1017.27 1017.11 1018.43 1018.03 1017.87 1018.39 1018.19 1018.55 1019.43 1019.59 1019.43 1019.35 1019.35 1019.31 1019.35 1019.39 1019.55 1019.59 1019.95 1020.07 1020.15 1020.23 1020.39 1020.39 1020.31 1020.19 1019.99 1019.83 1019.67 1019.39 1018.83
1014.83 1014.71 1014.55 1014.27 1014.43 1014.95 1015.27 1015.51 1015.75 1016.07 1016.31 1016.31 1016.31 1016.39 1016.47 1016.23 1015.99 1015.95 1016.35 1016.31 1016.43 1016.55 1016.55 1016.59 1016.59 1016.51 1016.43 1016.43 1016.31 1016.39 1016.47 1016.55 1016.67 1016.83 1016.83 1016.83 1016.91 1017.35 1017.79 1017.95 1017.95 1017.87 1017.23 1016.59 1016.79 1017.59 1018.23 1017.75 1018.11 1018.15 1018.59 1018.67 1018.79 1019.51 1019.39 1019.27 1019.11 1019.27 1019.31 1019.35 1019.47 1019.59 1019.59 1019.79 1019.87 1019.91 1020.11 1020.23 1020.19 1020.07 1019.95 1019.83 1019.71 1019.43
1014.15 1014.03 1013.91 1013.83 1013.79 1014.23 1014.63 1014.95 1015.27 1015.63 1015.91 1016.07 1016.19 1015.75 1015.59 1015.59 1015.87 1016.11 1016.03 1016.11 1016.19 1016.27 1016.31 1016.31 1016.31 1016.23 1016.27 1016.23 1016.15 1016.03 1015.99 1015.95 1015.95 1015.99 1016.07 1016.19 1016.27 1016.27 1016.31 1016.75 1017.31 1017.63 1017.27 1016.35 1016.51 1016.99 1017.63 1018.11 1017.79 1018.11 1018.47 1018.95 1018.87 1018.83 1019.67 1019.59 1019.15 1019.03 1019.07 1019.03 1019.19 1019.39 1019.47 1019.59 1019.67 1019.87 1019.91 1019.87 1019.87 1020.07 1020.03 1019.99 1019.91 1019.83
1013.31 1013.11 1013.15 1013.03 1013.31 1013.75 1014.07 1014.43 1014.79 1015.15 1015.47 1015.91 1015.83 1015.43 1015.47 1015.59 1015.71 1015.95 1016.07 1016.07 1016.19 1016.19 1016.15 1016.19 1016.31 1016.19 1016.07 1016.07 1015.99 1015.87 1015.83 1015.51 1015.43 1015.47 1015.47 1015.55 1015.71 1015.79 1015.67 1015.55 1015.59 1015.99 1015.87 1015.99 1016.15 1016.35 1016.83 1017.31 1016.99 1017.63 1018.15 1018.19 1018.75 1019.11 1019.15 1019.27 1019.15 1018.95 1019.11 1019.07 1019.11 1019.19 1019.23 1019.27 1019.59 1019.67 1019.71 1019.83 1019.87 1020.15 1020.11 1020.07 1020.03 1019.99
1012.43 1012.51 1012.47 1012.55 1012.83 1013.31 1013.67 1014.03 1014.35 1014.63 1015.07 1015.19 1015.07 1015.27 1015.35 1015.43 1015.67 1015.95 1015.99 1016.11 1016.11 1016.15 1016.19 1016.27 1016.15 1015.99 1015.67 1015.47 1015.47 1015.39 1015.19 1015.07 1014.99 1015.07 1015.11 1015.19 1015.19 1015.31 1015.35 1015.31 1015.39 1015.27 1015.43 1015.63 1015.91 1016.07 1016.31 1016.71 1016.87 1016.83 1017.15 1017.91 1018.63 1019.15 1019.23 1018.23 1018.19 1018.75 1018.99 1018.79 1018.79 1018.79 1018.99 1019.19 1019.39 1019.47 1019.55 1019.59 1019.71 1019.79 1019.75 1019.75 1019.75 1019.71
1011.55 1011.67 1011.95 1012.31 1012.67 1012.95 1013.35 1013.67 1013.99 1014.27 1014.55 1014.59 1014.55 1014.75 1014.99 1015.35 1015.55 1015.63 1015.71 1015.71 1015.75 1016.03 1016.03 1015.83 1015.63 1015.43 1015.19 1014.87 1014.67 1014.47 1014.51 1014.55 1014.59 1014.87 1014.95 1014.91 1014.99 1014.99 1015.11 1015.19 1015.19 1015.23 1015.35 1015.27 1015.43 1015.63 1015.87 1016.07 1016.23 1016.43 1016.83 1017.19 1017.95 1018.07 1018.15 1018.23 1018.27 1018.51 1018.51 1018.83 1019.19 1018.91 1018.99 1019.11 1019.23 1019.39 1019.47 1019.47 1019.59 1019.75 1019.83 1019.87 1019.83 1019.75
1011.27 1011.55 1011.83 1012.07 1012.35 1012.63 1012.95 1013.51 1013.83 1013.87 1013.71 1013.99 1014.15 1014.31 1014.71 1015.03 1014.95 1014.91 1015.03 1015.27 1015.43 1015.51 1015.27 1015.19 1015.15 1014.79 1014.39 1014.23 1014.03 1014.03 1014.19 1014.59 1014.79 1014.79 1014.99 1015.11 1015.19 1015.11 1015.27 1015.59 1015.47 1015.15 1014.87 1014.71 1014.83 1014.91 1015.23 1015.51 1015.67 1015.95 1016.43 1016.75 1016.99 1017.47 1017.59 1017.95 1018.39 1018.07 1018.35 1018.55 1018.43 1018.55 1018.79 1018.91 1019.07 1019.23 1019.43 1019.55 1019.55 1019.63 1019.59 1019.71 1019.79 1019.79
1011.35 1011.43 1011.75 1011.87 1012.07 1012.19 1012.43 1012.71 1012.75 1012.95 1012.95 1013.39 1013.83 1014.11 1014.19 1014.11 1013.99 1014.03 1014.19 1014.27 1014.47 1014.51 1014.55 1014.43 1014.19 1013.91 1013.67 1013.47 1013.79 1014.19 1014.35 1014.51 1014.31 1014.19 1014.51 1014.79 1014.83 1014.95 1014.95 1015.31 1015.43 1015.31 1015.03 1014.75 1014.75 1014.75 1014.79 1015.03 1015.27 1015.47 1016.19 1016.43 1016.59 1016.79 1016.95 1017.31 1017.91 1018.15 1018.23 1018.11 1018.35 1018.95 1018.59 1018.71 1018.91 1019.07 1019.23 1019.31 1019.39 1019.47 1019.51 1019.47 1019.43 1019.51
1010.91 1011.07 1011.19 1011.63 1011.87 1012.11 1012.43 1012.67 1012.83 1012.75 1012.67 1012.63 1012.79 1012.95 1013.11 1013.23 1013.23 1013.23 1013.31 1013.51 1013.51 1013.47 1013.43 1013.47 1013.43 1013.47 1013.51 1013.75 1013.71 1013.67 1013.83 1013.87 1013.87 1013.83 1014.15 1014.39 1014.47 1014.39 1014.67 1015.27 1015.23 1014.95 1015.07 1014.91 1014.83 1014.87 1014.99 1015.03 1015.27 1015.35 1015.47 1015.71 1016.39 1016.67 1016.83 1017.23 1017.51 1017.67 1017.83 1017.91 1018.11 1018.11 1018.23 1018.51 1018.63 1018.79 1019.03 1019.11 1019.15 1019.27 1019.47 1019.35 1019.27 1019.23
1010.67 1010.91 1011.15 1011.31 1011.55 1011.75 1012.07 1012.19 1012.27 1012.19 1012.27 1012.23 1012.07 1012.19 1012.35 1012.51 1012.67 1012.87 1013.07 1013.35 1013.27 1013.11 1013.23 1013.35 1013.35 1013.31 1013.23 1013.27 1013.15 1013.35 1013.55 1013.59 1013.59 1013.39 1013.83 1013.87 1014.11 1014.03 1014.23 1014.59 1014.43 1014.59 1014.87 1014.95 1014.91 1014.99 1014.95 1014.99 1015.03 1015.23 1015.31 1015.35 1015.47 1015.91 1016.67 1017.43 1017.27 1017.07 1017.47 1017.75 1017.95 1018.19 1018.19 1018.23 1018.35 1018.59 1018.79 1018.99 1019.07 1018.91 1019.23 1019.15 1019.07 1019.11
1010.95 1010.95 1011.11 1010.99 1010.99 1011.11 1011.31 1011.51 1011.55 1011.51 1011.47 1011.59 1011.67 1011.59 1011.67 1011.83 1011.87 1011.99 1012.15 1012.23 1012.27 1012.35 1012.55 1012.55 1012.75 1012.79 1012.79 1012.95 1012.95 1013.11 1013.19 1013.03 1012.99 1012.99 1013.47 1013.67 1013.55 1013.95 1014.19 1014.39 1014.15 1013.99 1014.27 1014.39 1014.59 1014.83 1015.15 1015.39 1015.67 1015.83 1015.79 1015.63 1015.35 1015.43 1015.79 1016.39 1016.79 1016.83 1016.87 1017.19 1017.63 1018.03 1017.95 1018.03 1018.27 1018.51 1018.71 1018.75 1018.95 1019.03 1018.83 1018.83 1018.83 1018.91
1011.35 1011.07 1010.95 1010.63 1010.39 1010.35 1010.43 1010.59 1010.63 1010.63 1010.75 1010.75 1010.87 1010.91 1010.95 1011.03 1011.15 1011.27 1011.35 1011.31 1011.47 1011.71 1011.87 1011.95 1011.99 1012.03 1012.27 1012.35 1012.35 1012.63 1012.75 1012.83 1012.71 1012.71 1012.99 1013.27 1013.27 1013.39 1013.59 1014.07 1014.03 1013.99 1014.15 1014.27 1014.39 1014.67 1015.07 1015.75 1016.19 1016.63 1016.83 1016.51 1016.27 1015.87 1015.39 1015.51 1015.99 1016.27 1016.55 1016.87 1017.15 1017.51 1017.75 1017.83 1018.07 1018.39 1018.59 1018.71 1018.75 1019.03 1018.71 1018.47 1018.55 1018.63
1011.11 1010.43 1010.15 1009.91 1009.75 1009.67 1009.91 1009.79 1009.83 1009.87 1009.91 1009.99 1010.15 1010.27 1010.39 1010.31 1010.19 1010.43 1010.55 1010.51 1010.87 1011.07 1011.19 1011.43 1011.55 1011.55 1011.59 1011.67 1011.71 1011.83 1012.07 1012.31 1012.47 1012.59 1012.83 1013.15 1013.19 1013.19 1013.23 1013.43 1013.55 1013.67 1013.83 1014.03 1014.19 1014.43 1014.91 1015.51 1015.95 1016.51 1017.03 1016.95 1016.39 1016.07 1015.99 1015.27 1015.23 1015.39 1016.15 1016.59 1016.79 1017.19 1017.35 1017.59 1017.87 1018.03 1018.31 1018.43 1018.51 1018.71 1018.71 1018.51 1018.31 1018.23
1009.83 1009.59 1009.39 1009.23 1009.11 1009.11 1009.19 1009.15 1009.23 1009.23 1009.19 1009.23 1009.31 1009.35 1009.47 1009.51 1009.39 1009.39 1009.39 1009.75 1010.19 1010.31 1010.43 1010.63 1010.79 1010.87 1010.99 1011.11 1011.27 1011.39 1011.59 1011.95 1012.19 1012.23 1012.47 1012.67 1012.87 1013.11 1013.35 1013.43 1013.47 1013.47 1013.71 1013.75 1013.83 1014.27 1014.67 1015.19 1015.59 1015.95 1016.35 1016.59 1016.39 1015.79 1015.07 1015.07 1015.31 1015.23 1015.47 1016.07 1016.51 1016.67 1017.11 1017.47 1017.91 1018.15 1017.99 1017.99 1018.15 1018.15 1018.15 1018.11 1018.03 1017.91
1008.95 1008.63 1008.75 1008.59 1008.51 1008.39 1008.35 1008.35 1008.43 1008.55 1008.55 1008.59 1008.67 1008.63 1008.59 1008.55 1008.55 1008.67 1008.71 1009.23 1009.59 1009.75 1009.99 1010.27 1010.19 1010.31 1010.39 1010.55 1010.99 1011.07 1011.03 1011.19 1011.43 1011.71 1011.99 1012.23 1012.63 1012.95 1013.07 1013.27 1013.31 1013.39 1013.39 1013.35 1013.59 1014.03 1014.39 1014.83 1015.31 1015.47 1015.71 1016.03 1016.11 1015.55 1015.07 1014.95 1015.11 1015.35 1015.15 1015.39 1015.91 1016.27 1016.55 1017.15 1017.59 1017.79 1017.83 1017.63 1017.71 1017.59 1017.59 1017.83 1017.75 1017.55
1008.15 1008.11 1008.03 1007.95 1007.79 1007.71 1007.75 1007.67 1007.67 1007.79 1007.83 1008.03 1008.15 1008.15 1008.15 1008.15 1008.15 1008.23 1008.39 1008.59 1008.75 1009.11 1009.35 1009.55 1009.63 1009.67 1009.91 1010.03 1010.19 1010.35 1010.59 1010.83 1011.23 1011.35 1011.55 1011.67 1011.87 1012.15 1012.47 1012.67 1012.91 1012.95 1013.15 1013.39 1013.35 1013.79 1014.35 1014.79 1015.03 1015.15 1015.27 1015.51 1015.51 1014.99 1013.95 1014.19 1014.43 1014.19 1014.75 1015.19 1015.43 1015.87 1016.31 1016.63 1016.95 1017.03 1017.11 1017.31 1017.35 1017.31 1017.27 1017.15 1017.19 1017.39
1007.35 1007.19 1007.03 1006.91 1006.91 1006.87 1006.95 1006.87 1006.95 1006.95 1007.19 1007.27 1007.31 1007.31 1007.51 1007.71 1007.75 1007.87 1007.95 1008.11 1008.35 1008.59 1008.71 1008.79 1008.99 1009.31 1009.51 1009.51 1009.67 1009.83 1009.95 1010.19 1010.43 1010.55 1010.79 1010.95 1011.11 1011.31 1011.63 1011.95 1012.27 1012.55 1012.91 1013.27 1013.55 1013.67 1013.99 1014.15 1014.11 1014.03 1014.27 1014.67 1014.91 1014.51 1014.03 1013.83 1013.87 1014.03 1014.63 1015.27 1015.39 1015.55 1015.67 1016.03 1016.59 1016.75 1016.87 1016.75 1016.83 1017.15 1017.19 1017.11 1017.31 1017.07
1006.87 1006.87 1006.51 1006.23 1006.19 1006.11 1006.19 1006.19 1006.23 1006.35 1006.47 1006.55 1006.67 1006.75 1006.87 1006.91 1007.15 1007.23 1007.35 1007.47 1007.83 1008.27 1008.47 1008.43 1008.55 1008.75 1008.83 1008.95 1009.19 1009.51 1009.87 1009.95 1009.91 1009.99 1010.11 1010.31 1010.71 1011.03 1011.23 1011.59 1012.31 1012.51 1012.79 1012.91 1013.03 1013.23 1013.07 1012.63 1012.35 1012.75 1013.75 1014.43 1014.55 1014.31 1014.39 1014.55 1014.79 1014.83 1014.79 1014.75 1015.07 1015.43 1015.63 1015.79 1015.99 1016.35 1016.63 1016.63 1016.83 1016.91 1016.99 1016.99 1016.95 1016.99
1005.87 1005.87 1005.59 1005.43 1005.51 1005.39 1005.35 1005.51 1005.55 1005.71 1005.83 1005.91 1006.03 1006.19 1006.39 1006.59 1006.59 1006.63 1006.95 1007.23 1007.47 1007.67 1007.75 1007.75 1007.83 1008.11 1008.35 1008.43 1008.59 1009.03 1009.35 1009.47 1009.59 1009.67 1009.71 1009.87 1010.27 1010.75 1011.07 1011.39 1011.83 1011.87 1012.03 1011.95 1011.91 1011.99 1011.79 1011.91 1012.31 1012.75 1013.39 1014.03 1014.43 1014.79 1014.91 1014.55 1014.59 1014.47 1014.31 1014.27 1014.67 1015.19 1015.63 1015.95 1016.23 1016.43 1016.47 1016.43 1016.63 1016.91 1016.87 1016.79 1016.83 1017.07
1004.95 1004.99 1004.95 1004.75 1004.71 1004.75 1004.79 1004.83 1004.91 1005.11 1005.23 1005.31 1005.47 1005.63 1005.87 1005.99 1006.07 1006.43 1006.63 1006.83 1007.03 1007.19 1007.27 1007.27 1007.23 1007.43 1007.67 1007.83 1008.03 1008.35 1008.63 1008.75 1008.79 1008.87 1009.07 1009.35 1009.55 1009.95 1010.39 1010.63 1010.91 1010.99 1010.99 1011.11 1011.27 1011.63 1011.83 1011.91 1012.15 1012.51 1013.07 1013.63 1013.91 1013.91 1014.03 1013.95 1014.03 1014.27 1014.15 1014.43 1014.71 1014.87 1015.35 1015.91 1016.23 1016.51 1016.67 1016.67 1016.51 1016.27 1016.15 1016.23 1016.47 1016.79
1004.03 1004.23 1004.19 1004.15 1004.23 1004.27 1004.31 1004.39 1004.51 1004.51 1004.67 1004.83 1004.91 1005.15 1005.39 1005.59 1005.83 1005.95 1006.07 1006.23 1006.39 1006.51 1006.51 1006.63 1006.71 1006.91 1007.15 1007.31 1007.51 1007.83 1008.03 1007.99 1007.99 1008.23 1008.35 1008.47 1008.63 1008.95 1009.47 1010.35 1010.71 1010.35 1010.43 1010.87 1011.35 1011.59 1011.83 1012.03 1012.11 1012.31 1012.99 1013.43 1013.55 1013.83 1013.67 1013.63 1014.19 1013.91 1013.87 1013.99 1014.27 1014.75 1015.11 1015.43 1015.99 1016.43 1016.63 1016.55 1016.39 1016.39 1016.43 1016.47 1016.27 1016.31
1003.27 1003.39 1003.55 1003.59 1003.67 1003.71 1003.79 1003.87 1004.03 1004.15 1004.31 1004.43 1004.51 1004.67 1005.07 1005.51 1005.67 1005.63 1005.63 1005.63 1005.79 1005.87 1006.07 1006.27 1006.39 1006.51 1006.75 1006.91 1007.19 1007.51 1007.51 1007.43 1007.51 1007.35 1007.47 1007.75 1008.15 1008.63 1009.11 1009.47 1009.63 1009.79 1010.15 1010.55 1011.11 1011.59 1011.79 1011.95 1012.07 1012.31 1012.67 1013.07 1013.31 1013.39 1013.43 1013.43 1013.43 1013.55 1013.55 1013.83 1014.23 1014.31 1014.55 1015.19 1015.63 1015.75 1015.79 1015.55 1015.55 1015.91 1016.11 1016.31 1016.35 1016.31
Thickness
5777 5777 5777 5776 5777 5779 5781 5781 5781 5780 5780 5780 5779 5779 5777 5771 5766 5764 5766 5769 5776 5784 5788 5788 5791 5795 5795 5795 5797 5798 5799 5800 5801 5803 5804 5806 5806 5806 5807 5808 5808 5809 5810 5810 5809 5809 5808 5808 5808 5807 5807 5807 5806 5805 5804 5803 5802 5801 5800 5800 5799 5798 5798 5797 5796 5795 5794 5793 5792 5790 5788 5785 5784 5782
5778 5778 5778 5778 5778 5780 5781 5782 5783 5782 5781 5781 5782 5781 5781 5779 5773 5769 5766 5769 5777 5783 5787 5791 5792 5794 5796 5796 5798 5800 5800 5801 5802 5804 5805 5806 5807 5807 5808 5809 5809 5809 5810 5810 5809 5809 5809 5808 5808 5808 5807 5806 5805 5805 5804 5803 5802 5801 5800 5800 5799 5799 5798 5797 5797 5796 5796 5794 5793 5791 5789 5787 5786 5783
5779 5778 5777 5778 5779 5780 5781 5782 5783 5783 5783 5783 5784 5783 5783 5781 5779 5777 5771 5769 5777 5784 5785 5790 5795 5796 5797 5797 5799 5801 5802 5803 5803 5805 5806 5806 5807 5808 5809 5809 5809 5809 5810 5809 5809 5809 5809 5808 5807 5807 5806 5806 5805 5804 5804 5803 5802 5801 5800 5799 5798 5798 5797 5797 5796 5796 5795 5794 5792 5791 5790 5789 5787 5785
5780 5778 5778 5778 5779 5781 5781 5781 5782 5783 5784 5785 5785 5784 5783 5782 5782 5782 5776 5770 5776 5787 5789 5789 5795 5797 5798 5798 5800 5801 5804 5804 5804 5805 5807 5807 5808 5809 5810 5810 5809 5809 5810 5810 5810 5809 5808 5807 5806 5806 5805 5805 5804 5803 5803 5802 5801 5799 5799 5798 5797 5797 5796 5795 5794 5795 5794 5793 5792 5790 5790 5789 5788 5787
5781 5780 5779 5779 5781 5781 5781 5781 5782 5784 5784 5785 5786 5785 5784 5784 5783 5782 5779 5774 5775 5784 5791 5792 5794 5797 5798 5798 5800 5802 5804 5805 5805 5806 5807 5808 5809 5809 5810 5811 5810 5809 5809 5809 5809 5809 5807 5806 5805 5804 5804 5803 5802 5802 5801 5800 5799 5798 5797 5796 5795 5795 5794 5793 5793 5793 5793 5792 5791 5790 5790 5789 5788 5788
5782 5781 5780 5780 5781 5782 5781 5781 5783 5784 5785 5785 5785 5785 5784 5784 5785 5785 5782 5778 5776 5779 5787 5791 5793 5796 5797 5796 5799 5801 5802 5804 5805 5806 5807 5808 5809 5809 5810 5811 5811 5809 5808 5809 5808 5807 5806 5805 5803 5802 5801 5801 5800 5799 5798 5798 5797 5796 5795 5794 5793 5793 5793 5792 5792 5791 5791 5791 5790 5790 5789 5789 5789 5788
5783 5782 5781 5781 5783 5784 5781 5781 5784 5784 5785 5786 5784 5785 5786 5785 5786 5787 5785 5782 5779 5779 5784 5789 5790 5794 5795 5796 5799 5801 5801 5802 5803 5804 5806 5808 5808 5809 5810 5811 5811 5808 5807 5808 5807 5806 5805 5803 5802 5800 5799 5799 5798 5797 5796 5795 5794 5793 5793 5792 5792 5791 5791 5791 5791 5790 5790 5790 5789 5788 5788 5788 5788 5788
5785 5783 5783 5783 5784 5784 5782 5782 5784 5784 5785 5785 5784 5784 5786 5786 5786 5788 5788 5785 5784 5781 5782 5786 5790 5792 5793 5795 5798 5800 5799 5800 5802 5803 5805 5807 5808 5809 5809 5810 5810 5808 5807 5807 5805 5804 5803 5801 5800 5798 5797 5796 5795 5794 5793 5792 5792 5791 5791 5791 5790 5789 5790 5789 5789 5789 5789 5788 5787 5787 5787 5788 5788 5787
5787 5786 5785 5786 5786 5785 5783 5783 5785 5786 5785 5785 5785 5785 5786 5787 5787 5788 5788 5788 5786 5783 5781 5784 5789 5792 5792 5794 5798 5799 5797 5797 5799 5801 5804 5806 5807 5807 5808 5809 5809 5807 5807 5806 5804 5802 5800 5799 5798 5796 5795 5794 5793 5792 5791 5790 5790 5790 5789 5789 5788 5788 5788 5787 5787 5787 5787 5786 5786 5786 5787 5787 5787 5787
5789 5789 5788 5788 5788 5786 5785 5785 5785 5786 5786 5786 5786 5785 5786 5787 5787 5787 5787 5787 5786 5784 5782 5784 5787 5789 5792 5792 5794 5797 5797 5794 5794 5796 5799 5803 5805 5806 5806 5806 5808 5808 5806 5805 5804 5801 5799 5797 5795 5794 5793 5792 5791 5790 5789 5789 5789 5788 5787 5787 5786 5785 5785 5785 5785 5784 5784 5784 5785 5785 5786 5786 5786 5787
5792 5792 5791 5791 5791 5790 5788 5788 5788 5788 5787 5787 5787 5787 5787 5787 5787 5786 5787 5787 5785 5784 5784 5784 5785 5788 5791 5791 5792 5796 5797 5795 5794 5794 5793 5795 5800 5803 5803 5803 5805 5806 5806 5803 5802 5800 5797 5795 5793 5792 5791 5790 5789 5788 5788 5788 5787 5786 5785 5784 5783 5783 5782 5782 5782 5782 5782 5783 5783 5784 5784 5784 5784 5785
5793 5794 5794 5795 5794 5794 5793 5792 5792 5791 5789 5788 5788 5789 5789 5789 5787 5786 5786 5786 5785 5784 5783 5784 5785 5787 5789 5790 5792 5794 5795 5792 5792 5794 5792 5790 5794 5798 5800 5802 5803 5804 5805 5804 5802 5799 5797 5795 5793 5792 5791 5789 5788 5787 5787 5786 5785 5783 5782 5781 5780 5780 5780 5779 5779 5779 5780 5781 5781 5782 5782 5782 5782 5783
5795 5795 5796 5797 5798 5798 5797 5796 5794 5793 5792 5791 5789 5790 5791 5789 5787 5787 5786 5786 5785 5784 5783 5783 5785 5786 5786 5788 5789 5790 5791 5790 5791 5795 5794 5791 5794 5796 5797 5800 5802 5802 5802 5803 5802 5800 5798 5796 5794 5793 5791 5788 5787 5786 5785 5784 5782 5781 5779 5778 5777 5777 5777 5776 5776 5777 5777 5778 5779 5780 5780 5780 5780 5781
5796 5797 5798 5799 5800 5799 5798 5798 5796 5795 5794 5793 5793 5793 5793 5792 5789 5787 5786 5786 5786 5784 5783 5784 5785 5785 5785 5788 5790 5789 5792 5794 5794 5794 5792 5790 5793 5794 5792 5795 5800 5802 5801 5799 5798 5798 5798 5796 5793 5792 5790 5788 5786 5785 5783 5781 5780 5778 5777 5776 5775 5774 5774 5774 5774 5774 5774 5775 5777 5777 5777 5778 5778 5779
5797 5798 5799 5801 5801 5801 5800 5800 5799 5798 5796 5796 5796 5796 5795 5794 5793 5790 5787 5787 5787 5786 5786 5786 5787 5786 5785 5789 5792 5792 5794 5795 5794 5793 5792 5790 5790 5789 5787 5788 5794 5799 5800 5796 5794 5795 5796 5795 5792 5790 5789 5786 5785 5783 5781 5779 5778 5776 5775 5774 5773 5772 5772 5772 5771 5772 5772 5773 5775 5776 5775 5775 5775 5776
5800 5800 5801 5803 5803 5804 5804 5803 5802 5801 5800 5799 5798 5797 5797 5796 5795 5795 5792 5790 5790 5789 5788 5788 5789 5789 5789 5790 5793 5794 5794 5794 5792 5792 5791 5789 5788 5787 5786 5786 5790 5797 5799 5795 5792 5793 5795 5794 5791 5789 5787 5785 5783 5781 5779 5777 5775 5774 5773 5772 5771 5770 5770 5769 5769 5769 5770 5770 5772 5773 5773 5772 5773 5773
5802 5802 5802 5803 5804 5806 5805 5804 5803 5803 5802 5801 5800 5799 5798 5797 5797 5796 5796 5795 5794 5794 5792 5791 5791 5793 5793 5792 5793 5796 5795 5793 5790 5789 5789 5789 5788 5786 5786 5787 5791 5797 5798 5794 5790 5791 5795 5794 5790 5788 5786 5785 5782 5780 5777 5776 5774 5773 5772 5770 5770 5769 5768 5767 5767 5767 5767 5768 5769 5770 5770 5771 5771 5771
5804 5804 5804 5803 5804 5806 5806 5805 5804 5803 5802 5802 5802 5801 5800 5800 5800 5799 5798 5798 5797 5797 5797 5795 5795 5798 5798 5796 5796 5798 5797 5794 5791 5789 5788 5788 5788 5787 5788 5791 5793 5796 5797 5795 5789 5788 5793 5795 5790 5787 5786 5784 5782 5779 5776 5774 5773 5771 5770 5769 5768 5767 5767 5766 5766 5765 5765 5766 5766 5767 5768 5768 5769 5769
5806 5806 5806 5805 5805 5806 5807 5806 5805 5804 5803 5802 5802 5802 5802 5802 5804 5803 5803 5803 5802 5803 5803 5802 5802 5802 5803 5802 5800 5800 5799 5797 5795 5794 5792 5791 5790 5788 5789 5790 5792 5794 5797 5797 5790 5785 5791 5795 5789 5786 5786 5783 5781 5779 5776 5773 5772 5769 5768 5767 5766 5766 5765 5764 5764 5763 5763 5764 5765 5765 5766 5766 5767 5767
5807 5808 5808 5807 5807 5807 5807 5808 5806 5803 5803 5802 5801 5801 5802 5803 5804 5806 5808 5807 5806 5807 5807 5807 5807 5805 5805 5804 5802 5800 5798 5797 5797 5796 5794 5792 5790 5786 5784 5785 5788 5792 5796 5797 5791 5785 5789 5793 5789 5785 5786 5783 5780 5779 5776 5772 5770 5768 5767 5765 5764 5764 5763 5762 5762 5761 5762 5763 5763 5764 5764 5765 5766 5766
5808 5809 5809 5810 5809 5809 5809 5809 5806 5803 5802 5801 5801 5800 5800 5801 5803 5806 5809 5808 5808 5809 5808 5808 5808 5806 5805 5803 5801 5799 5797 5796 5796 5793 5789 5789 5789 5784 5781 5780 5785 5790 5794 5796 5792 5786 5786 5790 5788 5784 5783 5781 5779 5778 5776 5773 5769 5766 5765 5764 5763 5762 5761 5759 5759 5759 5759 5761 5761 5762 5762 5763 5765 5766
5809 5810 5811 5810 5810 5810 5811 5809 5805 5803 5801 5800 5801 5800 5799 5800 5802 5805 5808 5809 5809 5809 5808 5808 5808 5805 5803 5802 5801 5800 5798 5795 5795 5791 5789 5791 5790 5785 5782 5781 5784 5788 5791 5795 5792 5785 5784 5787 5786 5782 5779 5777 5778 5778 5775 5772 5769 5766 5764 5762 5760 5759 5758 5756 5756 5755 5756 5757 5758 5759 5760 5761 5763 5764
5810 5811 5812 5811 5811 5811 5811 5808 5805 5802 5801 5801 5802 5802 5800 5800 5802 5805 5807 5807 5808 5808 5807 5807 5807 5806 5805 5803 5803 5802 5800 5798 5796 5795 5794 5795 5791 5786 5785 5785 5783 5781 5786 5793 5791 5783 5782 5786 5784 5780 5776 5773 5775 5776 5773 5771 5770 5767 5765 5762 5759 5756 5755 5753 5752 5752 5752 5753 5754 5755 5757 5758 5760 5762
5809 5812 5813 5813 5813 5811 5810 5807 5805 5802 5802 5803 5804 5803 5802 5803 5806 5808 5808 5807 5807 5808 5808 5809 5809 5809 5809 5808 5806 5805 5804 5801 5799 5798 5799 5798 5795 5790 5788 5787 5785 5782 5786 5793 5790 5783 5783 5785 5783 5781 5777 5773 5772 5772 5771 5770 5770 5767 5764 5761 5758 5755 5752 5751 5749 5749 5748 5749 5750 5752 5752 5754 5755 5757
5810 5812 5814 5816 5815 5812 5809 5807 5804 5802 5802 5803 5804 5805 5807 5808 5809 5808 5806 5806 5806 5806 5808 5809 5809 5809 5810 5809 5809 5807 5806 5805 5803 5802 5801 5801 5800 5796 5792 5789 5787 5786 5789 5794 5791 5785 5783 5783 5781 5779 5776 5773 5772 5769 5767 5768 5768 5766 5763 5761 5758 5755 5751 5749 5747 5746 5745 5746 5746 5747 5748 5749 5749 5750
5813 5814 5816 5818 5817 5813 5810 5808 5805 5803 5802 5802 5803 5807 5809 5809 5807 5805 5804 5804 5804 5805 5806 5806 5807 5807 5808 5807 5808 5806 5806 5806 5806 5805 5804 5803 5802 5800 5798 5795 5791 5788 5790 5793 5792 5788 5783 5781 5780 5778 5773 5770 5771 5768 5764 5764 5765 5764 5762 5759 5757 5754 5750 5748 5746 5744 5743 5743 5742 5742 5742 5743 5743 5744
5815 5817 5818 5819 5816 5813 5811 5808 5805 5803 5802 5802 5804 5807 5806 5805 5804 5802 5802 5802 5801 5802 5802 5802 5803 5804 5804 5804 5805 5805 5804 5805 5806 5807 5806 5804 5802 5801 5800 5799 5797 5795 5794 5792 5790 5788 5785 5781 5781 5779 5774 5770 5767 5763 5762 5763 5763 5761 5760 5758 5757 5753 5750 5748 5745 5743 5741 5740 5739 5738 5738 5738 5738 5738
5818 5819 5819 5818 5815 5812 5810 5808 5806 5803 5802 5803 5806 5805 5804 5803 5801 5799 5799 5799 5798 5797 5798 5798 5799 5801 5802 5803 5803 5804 5805 5805 5806 5806 5804 5803 5802 5801 5800 5799 5798 5796 5795 5791 5788 5787 5785 5782 5781 5780 5777 5772 5766 5761 5761 5763 5762 5759 5757 5756 5755 5753 5750 5747 5744 5742 5740 5738 5736 5735 5734 5734 5734 5734
5820 5819 5817 5815 5812 5810 5809 5806 5804 5804 5804 5805 5806 5805 5802 5800 5799 5799 5798 5797 5795 5795 5796 5797 5798 5800 5802 5803 5805 5805 5806 5805 5804 5803 5802 5800 5800 5799 5798 5797 5796 5794 5793 5791 5789 5787 5785 5784 5783 5781 5778 5773 5768 5764 5763 5762 5760 5758 5756 5754 5753 5752 5749 5745 5743 5741 5739 5736 5734 5732 5731 5730 5729 5729
5817 5815 5813 5811 5809 5808 5807 5805 5804 5806 5807 5806 5805 5804 5801 5800 5800 5800 5798 5796 5795 5795 5796 5798 5799 5801 5803 5805 5805 5804 5803 5801 5800 5799 5798 5797 5796 5796 5794 5792 5791 5792 5792 5790 5788 5787 5785 5784 5783 5781 5777 5774 5771 5768 5764 5761 5758 5757 5755 5752 5751 5750 5748 5744 5742 5740 5737 5735 5733 5731 5728 5727 5725 5725
5812 5811 5809 5808 5807 5807 5807 5806 5806 5807 5808 5806 5804 5803 5801 5801 5801 5802 5800 5799 5798 5798 5799 5800 5800 5802 5803 5803 5802 5800 5798 5798 5798 5798 5796 5794 5794 5794 5792 5789 5787 5789 5789 5788 5787 5785 5783 5782 5781 5779 5777 5773 5770 5768 5766 5761 5757 5754 5753 5752 5750 5747 5746 5744 5741 5738 5735 5733 5731 5729 5727 5725 5724 5723
5807 5808 5807 5806 5806 5806 5805 5804 5804 5805 5806 5806 5805 5804 5803 5802 5802 5802 5800 5799 5799 5800 5800 5800 5800 5801 5800 5799 5798 5798 5796 5796 5797 5796 5794 5792 5792 5792 5790 5786 5786 5786 5785 5785 5784 5783 5780 5778 5776 5776 5775 5773 5770 5766 5763 5759 5756 5754 5752 5750 5748 5746 5744 5742 5740 5737 5734 5732 5730 5728 5725 5723 5723 5721
5804 5805 5805 5805 5806 5805 5805 5804 5803 5805 5805 5805 5806 5806 5805 5804 5803 5802 5800 5798 5798 5799 5798 5797 5797 5797 5797 5797 5797 5796 5794 5794 5795 5794 5792 5789 5790 5790 5787 5786 5786 5786 5783 5781 5781 5779 5778 5776 5774 5772 5773 5772 5769 5766 5760 5756 5754 5754 5752 5748 5745 5742 5741 5739 5737 5734 5732 5728 5727 5726 5723 5721 5720 5718
5797 5799 5801 5803 5806 5806 5806 5805 5805 5806 5807 5806 5806 5807 5806 5805 5804 5803 5802 5801 5801 5799 5797 5797 5797 5796 5795 5795 5795 5794 5793 5793 5793 5792 5789 5788 5788 5787 5785 5783 5784 5784 5782 5780 5779 5777 5775 5772 5769 5766 5765 5766 5766 5765 5762 5757 5754 5753 5751 5748 5743 5739 5737 5736 5733 5729 5727 5725 5723 5721 5720 5719 5717 5714
5790 5796 5799 5803 5806 5807 5808 5808 5808 5809 5809 5808 5808 5807 5807 5807 5806 5805 5804 5804 5802 5800 5798 5798 5796 5795 5795 5795 5794 5793 5792 5791 5791 5790 5787 5785 5785 5786 5784 5782 5781 5781 5779 5777 5776 5774 5770 5766 5761 5757 5754 5756 5757 5759 5759 5757 5754 5752 5750 5746 5742 5738 5735 5733 5729 5725 5722 5720 5718 5716 5715 5716 5715 5712
5791 5798 5800 5803 5807 5808 5808 5810 5811 5810 5811 5811 5810 5809 5808 5809 5809 5808 5807 5805 5802 5801 5800 5798 5796 5795 5795 5794 5794 5793 5791 5790 5788 5787 5785 5783 5782 5783 5782 5781 5780 5779 5776 5774 5772 5770 5766 5762 5756 5750 5747 5748 5750 5753 5755 5755 5754 5753 5749 5744 5740 5737 5733 5729 5726 5722 5719 5716 5714 5712 5711 5711 5711 5710
5795 5800 5801 5802 5806 5807 5808 5810 5812 5812 5812 5812 5811 5811 5811 5811 5811 5811 5810 5806 5803 5802 5801 5799 5797 5796 5795 5793 5791 5791 5790 5788 5786 5785 5784 5781 5779 5778 5777 5777 5777 5775 5773 5771 5769 5766 5762 5758 5753 5747 5744 5743 5745 5749 5752 5752 5750 5750 5748 5742 5738 5735 5731 5726 5721 5717 5715 5714 5711 5710 5709 5707 5708 5707
5797 5800 5801 5803 5805 5806 5808 5810 5811 5812 5813 5813 5812 5812 5813 5813 5812 5812 5810 5806 5804 5802 5801 5798 5797 5797 5795 5792 5790 5789 5789 5788 5786 5784 5783 5780 5777 5775 5773 5772 5772 5771 5769 5768 5766 5762 5758 5753 5748 5744 5742 5741 5741 5745 5750 5750 5748 5747 5746 5741 5736 5733 5729 5723 5718 5714 5712 5711 5709 5709 5707 5705 5704 5704
5799 5801 5802 5804 5807 5808 5809 5810 5811 5812 5813 5812 5812 5812 5812 5811 5811 5810 5809 5807 5804 5802 5799 5798 5798 5796 5794 5792 5790 5789 5788 5786 5784 5782 5781 5779 5777 5775 5772 5770 5769 5766 5764 5764 5762 5758 5753 5749 5745 5743 5741 5739 5740 5744 5749 5750 5749 5748 5743 5737 5733 5731 5727 5721 5716 5712 5710 5709 5707 5705 5703 5701 5700 5699
5800 5802 5804 5807 5809 5810 5811 5812 5812 5812 5811 5812 5813 5813 5813 5811 5810 5808 5808 5806 5803 5800 5797 5797 5797 5795 5793 5791 5789 5787 5785 5784 5782 5781 5781 5779 5778 5775 5772 5768 5764 5761 5759 5758 5756 5753 5750 5749 5748 5747 5743 5739 5739 5743 5745 5745 5744 5742 5737 5732 5730 5728 5724 5719 5714 5708 5706 5705 5702 5700 5698 5697 5695 5694
5800 5802 5805 5808 5809 5811 5812 5813 5813 5812 5811 5811 5813 5812 5811 5811 5810 5809 5807 5805 5802 5798 5795 5795 5795 5793 5791 5790 5788 5784 5781 5780 5780 5779 5779 5778 5775 5772 5769 5764 5757 5755 5755 5755 5753 5752 5752 5753 5751 5747 5741 5737 5735 5735 5734 5734 5733 5733 5730 5728 5727 5724 5720 5715 5710 5705 5702 5700 5696 5693 5693 5692 5690 5688
5802 5804 5807 5810 5810 5812 5814 5814 5813 5812 5811 5811 5812 5810 5809 5809 5809 5807 5804 5802 5800 5797 5795 5795 5794 5792 5790 5789 5787 5782 5779 5778 5778 5776 5776 5774 5771 5768 5764 5760 5754 5753 5756 5756 5754 5753 5752 5751 5747 5743 5738 5734 5731 5727 5726 5727 5726 5725 5724 5724 5722 5718 5713 5708 5703 5699 5696 5694 5691 5688 5687 5686 5683 5681
5805 5805 5808 5810 5811 5811 5813 5813 5812 5811 5810 5810 5810 5809 5807 5806 5806 5804 5802 5800 5799 5797 5796 5795 5794 5791 5789 5787 5784 5781 5778 5778 5777 5775 5772 5771 5769 5767 5764 5758 5754 5754 5757 5756 5753 5750 5746 5743 5741 5738 5734 5730 5727 5725 5725 5724 5721 5719 5719 5719 5716 5712 5708 5702 5697 5692 5688 5687 5685 5683 5682 5681 5678 5676
5807 5807 5808 5810 5811 5811 5811 5811 5811 5810 5809 5807 5807 5806 5803 5802 5801 5800 5800 5799 5798 5797 5796 5794 5792 5790 5788 5785 5781 5778 5778 5777 5776 5775 5773 5772 5771 5769 5763 5757 5755 5757 5757 5752 5747 5743 5739 5735 5733 5732 5728 5724 5722 5721 5721 5719 5716 5715 5715 5713 5709 5706 5702 5697 5690 5686 5683 5681 5680 5678 5676 5674 5673 5671
5807 5808 5808 5808 5809 5809 5808 5808 5808 5806 5805 5804 5804 5800 5795 5792 5793 5795 5796 5797 5796 5795 5793 5791 5789 5787 5785 5782 5779 5776 5776 5776 5776 5774 5773 5771 5768 5763 5757 5753 5754 5754 5750 5744 5739 5736 5731 5727 5726 5724 5720 5717 5716 5716 5716 5714 5712 5712 5711 5708 5703 5700 5696 5691 5686 5683 5680 5679 5677 5674 5670 5668 5667 5665